World > North America > United States > Texas > Odds  

Odds, TX Hourly Weather Updates

Feedback E-mail the Weather

Quick Clicks

Odds, TX Weather Maps

°F °C°F °C
Odds Weather Map
UTC Time: 6/24/2024, 07:24
Your Time:

Odds, TX Regional Weather

Expires:202406240800;;564196
ASUS44 KFWD 240715
RWRTX 
NORTH TEXAS HOURLY WEATHER ROUNDUP
NATIONAL WEATHER SERVICE FORT WORTH TX
200 AM CDT MON JUN 24 2024

NOTE: "FAIR" INDICATES FEW OR NO CLOUDS BELOW 12,000 FEET WITH NO
SIGNIFICANT WEATHER AND/OR OBSTRUCTIONS TO VISIBILITY.


TXZ143>147-156>162-174-175-240800-
CENTRAL TEXAS
  
CITY           SKY/WX    TMP DP  RH WIND       PRES   REMARKS
WACO           FAIR      74  71  91 CALM      29.94S                  
WACO-MCGREGOR  FAIR      74  69  85 CALM      29.95F                  
HILLSBORO      FAIR      76  67  74 CALM      29.94F                  
CORSICANA      FAIR      79  71  76 S6        29.94F                  
MEXIA            N/A     77  73  86 MISG      29.94S FOG              
HEARNE         MOCLDY    82  76  81 SE3       29.95F HX  90           
CAMERON        FAIR      79  75  88 S3        29.94F                  
TEMPLE         FAIR      77  70  79 S5        29.96S                  
KILLEEN        FAIR      83  74  73 S5        29.96S                  
KILLEEN-SKYLRK FAIR      78  71  79 S6        29.96F                  
FORT CAVAZOS   FAIR      78  70  75 S3        29.94F                  
GATESVILLE     FAIR      75  73  94 CALM      29.96F                  
HAMILTON       FAIR      74  71  91 CALM      29.98F                  
$$


SKY/WX - Weather  TMP - Temperature  DP - Dew Point  RH - Humidity
WIND - Wind Direction/Speed PRES - Barometric Pressure VSB - Visibility
WCI - Wind Chill Index E13G22 Wind - East Wind 13 mph/Gusts of 22 mph

Trending Headlines

Trending Entertainment Headlines

Odds Radar Loop

Use the map search tool if you want to place a location marker on the radar map...

Odds Quick Facts

National Two Day Weather Forecast


E-mail the Odds Weather Forecast

Voice your opinion or tell us about page issues...